Regional Weather Roundup
Issued by NWS

Home | Current Version | Previous Version | Graphics & Text | Print | Product List | Glossary On
Versions: 1 2 3 4 5 6 7 8 9 10 11 12 13 14 15 16 17 18 19 20 21 22 23 24 25 26 27 28 29 30 31 32 33 34 35 36 37 38 39 40 41 42 43 44 45 46 47 48 49 50
000
ASUS45 KTFX 040210
RWRMT
MONTANA REGIONAL WEATHER ROUNDUP
NATIONAL WEATHER SERVICE GREAT FALLS MT
800 PM MDT THU SEP 03 2015

NOTE: "FAIR" INDICATES FEW OR NO CLOUDS BELOW 12000 FEET WITH NO
SIGNIFICANT WEATHER AND/OR OBSTRUCTIONS TO VISIBILITY.

MTZ001>007-043-040300-
WEST OF THE DIVIDE

CITY           SKY/WX    TMP DP  RH WIND       PRES   REMARKS
KALISPELL      CLOUDY    52  49  89 W6        29.96R
MISSOULA       MOCLDY    52  46  80 E5        29.99R
BUTTE          CLOUDY    51  36  56 W14G24    29.97R
MULLAN PASS    LGT RAIN  40  37  89 SW6       30.00S
DEER LODGE       N/A     46  41  81 NW18G25   30.02R
EUREKA           N/A     57  43  58 SE13      29.93R
HAMILTON         N/A     50  48  93 NE3       29.98R
LIBBY            N/A     63  34  34 CALM      29.92R
RONAN            N/A     54  47  77 SE1       30.01R
$$

MTZ008-052>055-040300-
SOUTHWEST MONTANA

CITY           SKY/WX    TMP DP  RH WIND       PRES   REMARKS
BOZEMAN        MOCLDY    64  41  42 W12       29.85R
DILLON         CLOUDY    58  39  49 N9        29.88R
W YELLOWSTONE  PTCLDY    66  28  24 SW3       29.93S
$$

MTZ009-010-012-014-046-048-049-054-040300-
EAST SLOPES AND CENTRAL MONTANA

CITY           SKY/WX    TMP DP  RH WIND       PRES   REMARKS
CUT BANK       CLOUDY    51  46  83 E3        29.97R
GREAT FALLS    LGT RAIN  50  48  93 N5        29.97R FOG
MALMSTROM AFB  LGT RAIN  50  48  91 NW6       29.97R
HELENA         CLOUDY    57  45  64 W7        29.94R
$$

MTZ011-013-016-021-045-047-050-051-040300-
NORTH CENTRAL MONTANA

CITY           SKY/WX    TMP DP  RH WIND       PRES   REMARKS
HAVRE          CLOUDY    62  41  46 CALM      29.96R
LEWISTOWN      CLEAR     62  39  42 NW16      29.90R
N BAR RANCH      N/A     64  37  36 NE7       29.92R
CHINOOK          N/A     63  45  51 N6        29.91R
FORT BENTON      N/A     54  48  82 NW10      29.95R
$$

MTZ017>020-022>027-061-062-040300-
NORTHEAST MONTANA

CITY           SKY/WX    TMP DP  RH WIND       PRES   REMARKS
GLASGOW        PTCLDY    69  35  28 N14       29.81R
JORDAN           N/A     74  42  31 NE13      29.81R
SIDNEY         PTCLDY    75  50  41 N12         N/A
WOLF POINT     MOCLDY    73  41  31 NE17G24   29.79R
PLENTYWOOD       N/A     70  41  35 N18G24    29.81R
POPLAR           N/A     72  39  30 N14G21    29.79R
$$

MTZ028>42-056>058-040300-
SOUTHCENTRAL AND SOUTHEAST MONTANA

CITY           SKY/WX    TMP DP  RH WIND       PRES   REMARKS
BAKER          PTCLDY    74  49  41 NE7       29.76R
BILLINGS       LGT RAIN  71  40  32 NE10      29.82R
LIVINGSTON     MOCLDY    69  37  30 E16       29.83R
MILES CITY     MOCLDY    78  44  29 NE15      29.72S
FORSYTH          N/A     75  43  31 N6        29.76R
LAUREL           N/A     70  44  38 NE3       29.83S
$$

REGIONAL REPORTS...DAKOTAS

CITY           SKY/WX    TMP DP  RH WIND       PRES   REMARKS
WILLISTON      PTCLDY    76  55  48 N13       29.76R
MINOT          PTCLDY    77  67  71 NW10      29.68R
DICKINSON      MOCLDY    77  56  48 NE6       29.73R
CROSBY         CLOUDY    73  55  53 N13       29.79R
BISMARCK       CLOUDY    90  48  23 S20       29.68S
GRAND FORKS    PTCLDY    84  71  65 SE17      29.73R
FARGO          CLEAR     83  73  72 SE14G23   29.77R
BUFFALO SD       N/A     78  49  35 E7        29.69R
RAPID CITY     MOCLDY    79  54  41 S16G22    29.77R
$$

REGIONAL REPORTS...WYOMING/IDAHO/WASHINGTON

CITY           SKY/WX    TMP DP  RH WIND       PRES   REMARKS
GILLETTE       CLOUDY    82  38  20 S15       29.77S
SHERIDAN       MOCLDY    72  39  30 NW17      29.81R
BUFFALO WY     MOCLDY    71  43  36 NW18G26   29.84R
CODY           MOCLDY    66  45  45 N3        29.85S
YELLOWSTONE LA   N/A     60  36  40 CALM      30.03F
IDAHO FALLS    MOCLDY    74  37  26 S20       29.84R
SALMON         MOCLDY    55  39  54 N10       29.89R
BOISE          MOCLDY    68  37  32 NW13      29.84S
SPOKANE        PTCLDY    62  26  25 SW10      29.92S
$$

REGIONAL REPORTS...ALBERTA

CITY           SKY/WX    TMP DP  RH WIND       PRES   REMARKS
EDMONTON       PTCLDY    52  36  54 NE6       29.99R
CALGARY        MOCLDY    48  45  87 NE10      29.95R
LETHBRIDGE     MOCLDY    52  50  93 SE5       29.93F
MEDICINE HAT   MOCLDY    54  50  87 E6        29.96R
WATERTON GATE    N/A     46  41  81 SW7         N/A
MILK RIVER       N/A     52  48  87 SE6         N/A
ONEFOUR          N/A     52  48  87 N6          N/A
$$

REGIONAL REPORTS...SASKATCHEWAN

CITY           SKY/WX    TMP DP  RH WIND       PRES   REMARKS
SWIFT CURRENT  LGT RAIN  55  41  58 N8        29.94R
REGINA         MOCLDY    63  41  45 N13       29.86S
SASKATOON      CLOUDY    54  46  76 CALM      29.96R
CYPRESS HILLS    N/A     48  41  76 N6          N/A
VAL MARIE        N/A     59  41  51 N14         N/A
ROCKGLEN         N/A     59  39  47 N13         N/A
$$


USA.gov is the U.S. government's official web portal to all federal, state and local government web resources and services.